sat.trackr.live / text

‹ back to catalog

STARLINK-34457

NORAD 64368 · 2025-126AA

PAYLOAD ACTIVE UNKNOWN

§ Identity

Operator
Country
US
Launch date
2025-06-13
Launch site
AFWTR
Launch vehicle
Mass (kg)
RCS (m²)

Purposes: comms

External: N2YO · Heavens-Above · Gunter

§ Orbital elements

Epoch: 2026-09-20T22:55:58.715616Z

Period
94.14 min
Inclination
70.0004°
Eccentricity
0.0003202
Mean motion
15.29586105 rev/d
Perigee alt
474.9 km
Apogee alt
479.2 km
Semi-major
6,855.2 km
B*
3.2694e-4
RAAN
259.6112°
Arg perigee
268.4728°
Mean anomaly
91.6081°
Rev number
6,999

§ Raw data

STARLINK-344571 64368U 25126AA  26263.95554069  .00009284  00000+0  32694-3 0  99942 64368  70.0004 259.6112 0003202 268.4728  91.6081 15.29586105 69990

JSON: /api/v1/satellites/64368 · /tle

For live sub-satellite position, see the globe view (requires WebGL).

§ Visibility from observer

Set your observer location to see the next 7 days of passes ≥ 10°. The values pass through the URL so the page stays shareable.

No JS? Fill the form by hand. The geolocation button needs JavaScript.